CZ-3B R/B, 63158

Orbit data source: Space-Track

CZ-3B R/B, 63158 is space debris in HEO originally from a launch on Sun, 09 Mar 2025 UTC launched from the Xichang Space Center, China (XSC). Debris objects in space refer to the collection of defunct objects orbiting the Earth. Examples of debris include non-operational satellites, rocket bodies, and fragments generated from explosions, collisions, or faulty payload assembly.

Loading next visibility...
Identifier
63158, 2025-045B
Orbit
HEO
Last TLE update
3 days ago
Origin
Manufacturer
CALT
Mission
Spacecraft
Bus & Motor
CZ-3A STAGE 3, Unknown motor
Mass
~2,800 kg wet, ~2,800 kg dry
Launch date (UTC)
2025-03-09 (2 months ago)
Launch vehicle
Unknown
Launch site
Xichang Space Center, China (XSC)
Object type
Payload
Rocket body
Debris
Shape & HBR
Cyl + 1 Nozzle, 12.38 m
Radar Cross Section
32.704 m², Large (>1 m²)

Expand to show TLE details & history

TLE from 3 days ago
0 CZ-3B R/B
1 63158U 25045B   25126.11839092  .00338838 -29587-6  91771-3 0  9997
2 63158  19.2415  41.2643 7236352 222.0759  50.7891  2.40145689  1361
Epoch: 2025-05-06T02:50Z
Definitive object data (Epoch: 2025-05-06T02:50:28.975Z)
Latitude
0.00021°
Longitude
134.38778°
Altitude
17,885.678 km
Speed
3.992 km/s
True Right ascension
02h 44m 55s
True Declination
0° 00' 01"
Sunlit
Object was in daylight at TLE epoch
Visualization TLE readout
Latitude
18.02894°
Longitude
-158.2799°
Altitude
25,907.109 km
Speed
2.77 km/s
Apparent Right ascension
06h 42m 50s
Apparent Declination
10° 10' 05"
Sunlit
Object is in daylight
Visualization observer readout
Local Sidereal Time
14:47:15
Azimuth
298.713° NW
Elevation
-16.064°
Doppler factor
1
Orbital elements
Apogee altitude
34,230.528 km
Perigee altitude
132.989 km
Semi-major axis
23,559.895 km
Eccentricity
0.7236352
Inclination
19.2415°
RAAN
41.2643°
Arg. of periapsis
222.0759°
True anomaly
137.86605°
Mean anomaly
50.7891°
Eccentric anomaly
92.21925°
Mean motion
0.60018 °/min
BSTAR
0.00091771
Orbital period
599.82 mins
Loading maneuver chart data...
Loading SW <> Apogee altitude chart data...
Loading historical data...
Loading historical data...
Loading historical data...
Loading historical data...
Loading historical data...
Loading historical data...
Loading historical data...
Other satellites on launch #45 in the year 2025 (2025-03-09 UTC)

CZ-3B R/B Visibility forecast

Observer location: undefined°, undefined°

Span
Click to sort rows by Start time (UTC) header in descending order
Start Az.
Max El. time (UTC)
Max El. Az.
Max El.
End time (UTC)
End Az.
531 mins2025-05-09 19:41:23.240Z224.604° SW2025-05-09 22:18:23.240Z227.492° WSW34.687°2025-05-10 04:32:23.240Z168.366° S
|